LKW-4 (43236 NORAD) Tracking and Keplerian Element Data

This shows tracking and keplerian element data for the satellite.

Feedback or suggestion? Click here.




ElementValue
Catalog43236
NameLKW-4
Epoch Orbit450
Epoch Day105.85421706
Epoch Year2018
RAAN226.1867
Inclination97.3332
Eccentricity0.0011089
Argument of Perigee185.5266
Mean Anonmoly289.9694
Mean Motion15.23554044
Decay Rate1.144E-05
L11 43236U 18025A 18105.85421706 .00001144 00000-0 50724-4 0 9994
L22 43236 97.3332 226.1867 0011089 185.5266 289.9694 15.23554044 4500

Live tracking and technical data element details for LKW-4 (NORAD 43236). LKW-4 can be tracked NOW for your location showing map with azimuth and elevation plus other details from your city location.

Track the satellite on the map from your city or location and see movement details for azimuth, elevation, latitude, longitude, range, height, and movement on the map or in text.







IsCatalogInMostPopularTable: catalog: 43236, numindb: 101
Update: records affected: 1



GetName: 43236 LKW-4

Hit Count: updated at: Sat, 17 Nov 2018 02:05:28 GMT